N8FIS Weather Reports


time (UTC)temp
C
wind
direction
speed
KPH
gust
KPH
rain 1hr
cm
rain 24hr
cm
rain mn
cm
humidity
%
barometer
mb
20260504120110 10 197 3.2 17.7 0.00 0.00 0.00 74 1006.3
20260504110609 10 202 3.2 12.9 0.00 0.00 0.00 75 1005.9
20260504100605 10 196 3.2 11.3 0.00 0.00 0.00 74 1005.8
20260504090111 10 174 1.6 8.0 0.00 0.00 0.00 73 1006.2
20260504081538 10 180 3.2 20.9 0.00 0.00 0.00 71 1006.6
20260504081048 10 180 4.8 20.9 0.00 0.00 0.00 71 1006.7
20260504080553 10 179 6.4 16.1 0.00 0.00 0.00 71 1006.6
20260504050542 11 195 4.8 11.3 0.00 0.00 0.00 68 1008.9
20260504045556 11 153 4.8 16.1 0.00 0.00 0.00 68 1009.0
20260504045041 11 174 3.2 14.5 0.00 0.00 0.00 68 1009.0
20260504044548 11 195 6.4 17.7 0.00 0.00 0.00 68 1009.0
20260504044054 11 184 6.4 17.7 0.00 0.00 0.00 68 1009.1
20260504043552 11 153 6.4 14.5 0.00 0.00 0.00 69 1009.2
20260504043036 11 185 3.2 16.1 0.00 0.00 0.00 69 1009.3
20260504042546 10 185 6.4 16.1 0.00 0.00 0.00 69 1009.2
20260504042101 10 179 6.4 14.5 0.00 0.00 0.00 69 1009.2
20260504041542 10 191 4.8 14.5 0.00 0.00 0.00 70 1009.2
20260504041042 10 193 4.8 16.1 0.00 0.00 0.00 70 1009.3
20260504040547 10 173 3.2 16.1 0.00 0.00 0.00 70 1009.4
20260504040053 10 167 4.8 16.1 0.00 0.00 0.00 70 1009.4
20260504035551 10 180 8.0 16.1 0.00 0.00 0.00 70 1009.5
20260504035037 10 198 3.2 11.3 0.00 0.00 0.00 71 1009.6
20260504034545 10 192 3.2 9.7 0.00 0.00 0.00 71 1009.6
20260504034048 10 175 1.6 16.1 0.00 0.00 0.00 71 1009.6
20260504033552 10 182 6.4 16.1 0.00 0.00 0.00 71 1009.7
20260504033038 10 167 9.7 14.5 0.00 0.00 0.00 72 1009.7
20260504032541 10 193 3.2 11.3 0.00 0.00 0.00 72 1009.7
20260504032112 10 191 6.4 9.7 0.00 0.00 0.00 73 1009.8
20260504031555 10 178 4.8 11.3 0.00 0.00 0.00 74 1009.8
20260504031039 10 172 4.8 11.3 0.00 0.00 0.00 74 1009.9
20260504030543 10 165 6.4 11.3 0.00 0.00 0.00 75 1010.0
20260504025602 10 167 4.8 9.7 0.00 0.00 0.00 74 1010.0
20260504025041 10 184 3.2 9.7 0.00 0.00 0.00 74 1010.2
20260504024547 10 157 3.2 9.7 0.00 0.00 0.00 74 1010.3
20260504024051 10 178 6.4 11.3 0.00 0.00 0.00 74 1010.3
20260504023537 10 132 3.2 8.0 0.00 0.00 0.00 74 1010.4
20260504023056 10 183 3.2 11.3 0.00 0.00 0.00 73 1010.4
20260504022540 10 180 4.8 11.3 0.00 0.00 0.00 73 1010.4
20260504022046 10 181 4.8 9.7 0.00 0.00 0.00 72 1010.5
20260504021550 10 179 3.2 9.7 0.00 0.00 0.00 72 1010.4
20260504021054 10 194 4.8 9.7 0.00 0.00 0.00 72 1010.4
20260504020601 10 186 4.8 9.7 0.00 0.00 0.00 71 1010.4
20260504020043 10 195 4.8 11.3 0.00 0.00 0.00 71 1010.5
20260504015547 10 175 4.8 11.3 0.00 0.00 0.00 71 1010.5
20260504015053 10 173 4.8 8.0 0.00 0.00 0.00 70 1010.5
20260504014537 10 178 4.8 9.7 0.00 0.00 0.00 70 1010.4
20260504014042 11 190 4.8 9.7 0.00 0.00 0.00 70 1010.4
20260504013544 11 172 3.2 9.7 0.00 0.00 0.00 70 1010.4
20260504013050 11 187 4.8 9.7 0.00 0.00 0.00 69 1010.4
20260504012554 11 186 3.2 9.7 0.00 0.00 0.00 69 1010.4
20260504012039 11 196 3.2 9.7 0.00 0.00 0.00 68 1010.4
20260504011544 11 146 4.8 8.0 0.00 0.00 0.00 68 1010.5
20260504011051 11 177 1.6 9.7 0.00 0.00 0.00 68 1010.4
20260504010605 11 194 4.8 9.7 0.00 0.00 0.00 68 1010.5
20260504010117 11 187 3.2 6.4 0.00 0.00 0.00 67 1010.5
20260504005542 11 189 3.2 9.7 0.00 0.00 0.00 67 1010.6
20260504005104 11 192 1.6 9.7 0.00 0.00 0.00 67 1010.6
20260504004616 11 261 3.2 8.0 0.00 0.00 0.00 67 1010.5
20260504004041 11 336 4.8 11.3 0.00 0.00 0.00 66 1010.5
20260504003550 11 169 4.8 11.3 0.00 0.00 0.00 67 1010.5
20260504003053 11 288 1.6 9.7 0.00 0.00 0.00 67 1010.5
20260504002538 11 196 1.6 8.0 0.00 0.00 0.00 66 1010.6
20260504002044 11 170 1.6 14.5 0.00 0.00 0.00 66 1010.7
20260504001551 11 193 6.4 19.3 0.00 0.00 0.00 65 1010.8
20260504001056 11 198 1.6 22.5 0.00 0.00 0.00 64 1010.8
20260504000540 11 109 6.4 24.1 0.00 0.00 0.00 64 1010.7
20260504000048 12 161 8.0 24.1 0.00 0.00 0.00 64 1010.8
20260503235552 12 221 4.8 20.9 0.00 0.00 0.00 65 1010.8
20260503235037 12 222 3.2 8.0 0.00 0.00 0.00 64 1010.8
20260503234543 12 330 3.2 14.5 0.00 0.00 0.00 64 1010.8
20260503234116 12 298 3.2 14.5 0.00 0.00 0.00 64 1010.7
20260503233538 12 273 3.2 16.1 0.00 0.00 0.00 64 1010.7
20260503233100 13 350 4.8 16.1 0.00 0.00 0.00 62 1010.7
20260503232545 13 153 3.2 12.9 0.00 0.00 0.00 60 1010.7
20260503232050 13 281 4.8 12.9 0.00 0.00 0.00 61 1010.6
20260503231555 14 300 4.8 22.5 0.00 0.00 0.00 60 1010.5
20260503231041 14 327 8.0 22.5 0.00 0.00 0.00 58 1010.5
20260503230548 15 290 3.2 14.5 0.00 0.00 0.00 56 1010.4
20260503230052 15 317 4.8 14.5 0.00 0.00 0.00 48 1010.4
20260503225537 15 235 4.8 14.5 0.00 0.00 0.00 43 1010.3
20260503225042 15 177 4.8 16.1 0.00 0.00 0.00 44 1010.3
20260503224548 15 196 4.8 16.1 0.00 0.00 0.00 44 1010.3
20260503224054 15 26 4.8 19.3 0.00 0.00 0.00 42 1010.3
20260503223539 15 267 6.4 19.3 0.00 0.00 0.00 42 1010.4
20260503223046 16 261 6.4 14.5 0.00 0.00 0.00 42 1010.4
20260503222550 16 311 6.4 16.1 0.00 0.00 0.00 42 1010.4
20260503222037 16 272 4.8 16.1 0.00 0.00 0.00 42 1010.3
20260503221542 16 156 6.4 16.1 0.00 0.00 0.00 43 1010.4
20260503221043 16 300 3.2 16.1 0.00 0.00 0.00 43 1010.4
20260503220551 16 223 3.2 16.1 0.00 0.00 0.00 43 1010.3
20260503220056 16 166 4.8 16.1 0.00 0.00 0.00 42 1010.3
20260503215539 16 174 6.4 16.1 0.00 0.00 0.00 43 1010.4
20260503215045 16 279 3.2 19.3 0.00 0.00 0.00 42 1010.4
20260503214551 16 141 4.8 19.3 0.00 0.00 0.00 43 1010.5
20260503214036 16 339 1.6 16.1 0.00 0.00 0.00 43 1010.5
20260503213607 16 198 6.4 20.9 0.00 0.00 0.00 42 1010.6
20260503213053 16 182 6.4 20.9 0.00 0.00 0.00 42 1010.4
20260503212605 16 209 6.4 20.9 0.00 0.00 0.00 41 1010.6
20260503212049 16 269 4.8 22.5 0.00 0.00 0.00 42 1010.7
20260503211555 16 334 3.2 22.5 0.00 0.00 0.00 41 1010.6
20260503211100 16 180 8.0 29.0 0.00 0.00 0.00 42 1010.6
20260503210540 16 306 4.8 29.0 0.00 0.00 0.00 42 1010.7
20260503210048 16 272 4.8 16.1 0.00 0.00 0.00 42 1010.8
20260503205536 16 250 8.0 22.5 0.00 0.00 0.00 40 1010.7
20260503205043 17 298 4.8 22.5 0.00 0.00 0.00 40 1010.8
20260503204549 16 305 3.2 17.7 0.00 0.00 0.00 41 1011.0
20260503204052 16 251 4.8 27.4 0.00 0.00 0.00 40 1010.9
20260503203539 17 328 6.4 27.4 0.00 0.00 0.00 39 1010.9
20260503203049 17 169 6.4 19.3 0.00 0.00 0.00 42 1010.9
20260503202554 17 182 9.7 20.9 0.00 0.00 0.00 41 1010.7
20260503202040 17 269 6.4 19.3 0.00 0.00 0.00 41 1010.9
20260503201549 17 181 8.0 19.3 0.00 0.00 0.00 39 1010.8
20260503201055 17 275 6.4 19.3 0.00 0.00 0.00 39 1010.9
20260503200601 17 268 3.2 22.5 0.00 0.00 0.00 44 1011.0
20260503200046 17 211 4.8 22.5 0.00 0.00 0.00 40 1011.1
20260503195554 17 279 3.2 22.5 0.00 0.00 0.00 42 1011.2
20260503195040 17 340 8.0 22.5 0.00 0.00 0.00 41 1011.2
20260503194602 17 240 6.4 14.5 0.00 0.00 0.00 40 1011.3
20260503194111 17 263 3.2 14.5 0.00 0.00 0.00 40 1011.4
20260503193536 17 297 3.2 14.5 0.00 0.00 0.00 41 1011.5
20260503193040 17 227 4.8 17.7 0.00 0.00 0.00 40 1011.6
20260503192549 17 280 3.2 29.0 0.00 0.00 0.00 41 1011.6
20260503192053 17 220 6.4 29.0 0.00 0.00 0.00 41 1011.6
20260503191538 17 198 4.8 19.3 0.00 0.00 0.00 41 1011.8
20260503191045 17 269 6.4 20.9 0.00 0.00 0.00 41 1011.9
20260503190551 17 171 6.4 20.9 0.00 0.00 0.00 39 1011.9
20260503190057 17 350 4.8 19.3 0.00 0.00 0.00 40 1012.0
20260503185545 16 271 4.8 19.3 0.00 0.00 0.00 40 1012.0
20260503185051 17 251 9.7 17.7 0.00 0.00 0.00 38 1012.2
20260503184537 17 207 1.6 25.7 0.00 0.00 0.00 41 1012.1
20260503184042 17 257 3.2 25.7 0.00 0.00 0.00 40 1012.0
20260503183548 17 240 6.4 14.5 0.00 0.00 0.00 40 1012.2
20260503183050 17 290 4.8 14.5 0.00 0.00 0.00 39 1012.3
20260503182537 17 136 4.8 16.1 0.00 0.00 0.00 39 1012.3
20260503182105 17 169 4.8 20.9 0.00 0.00 0.00 42 1012.3
20260503181551 17 165 8.0 22.5 0.00 0.00 0.00 39 1012.5
20260503181057 17 34 6.4 22.5 0.00 0.00 0.00 40 1012.5
20260503180606 17 236 3.2 14.5 0.00 0.00 0.00 42 1012.6
20260503180049 17 5 4.8 19.3 0.00 0.00 0.00 41 1012.6
20260503175555 17 207 4.8 19.3 0.00 0.00 0.00 41 1012.7
20260503175104 17 322 4.8 14.5 0.00 0.00 0.00 42 1012.8
20260503174548 17 229 4.8 14.5 0.00 0.00 0.00 42 1012.9
20260503174039 16 64 4.8 16.1 0.00 0.00 0.00 39 1012.9
20260503173601 16 188 6.4 19.3 0.00 0.00 0.00 42 1012.9
20260503173045 16 276 3.2 19.3 0.00 0.00 0.00 43 1013.0
20260503172552 16 277 6.4 16.1 0.00 0.00 0.00 41 1013.1
20260503172037 16 178 4.8 17.7 0.00 0.00 0.00 40 1013.1
20260503171603 16 257 6.4 22.5 0.00 0.00 0.00 43 1013.1
20260503171049 16 107 4.8 22.5 0.00 0.00 0.00 43 1013.3
20260503170554 16 91 3.2 14.5 0.00 0.00 0.00 47 1013.3
20260503150551 13 333 1.6 11.3 0.00 0.00 0.00 54 1014.4
20260503140111 11 142 3.2 11.3 0.00 0.00 0.00 56 1014.8
20260503131107 8 271 1.6 9.7 0.00 0.00 0.00 66 1014.9
20260503130553 8 187 3.2 9.7 0.00 0.00 0.00 65 1014.9